Location: London
(51.5074°N, 0.1278°W)
Time: 08:13:05
(UTC+00:00)

TIGRISAT - Pass Details

Date: 06 October 2020
Orbit: 606 x 688 km, 97.7° (Epoch: 30 October)

Event Time Altitude Azimuth Distance (km) Brightness Sun altitude
Rises 20:23:45 0° 21° (NNE) 3,003 ? -19.0°
Reaches altitude 10° 20:26:10 10° 31° (NNE) 2,099 ? -19.4°
Enters shadow 20:27:44 19° 45° (NE) 1,588 ? -19.6°
